Powrót do katalogu

FREGAT R/B

AktywnyMEO
NORAD 44116·ROCKET BODY·🇷🇺 Russia

Wystrzelony Apr 4, 2019 z Guiana Space Centre

Loading…

Następne Przeloty (najbliższe 24 godziny)

TLE

ŚwieżeSource: Space-Track

Epoka: Sep 14, 2026, 09:44 UTC

1 44116U 19020E   26257.40562196 -.00000024  00000-0  00000-0 0  9990
2 44116   0.0823  42.3038 0009284 129.4513 188.2613  5.21007957141156

Śledź FREGAT R/B w czasie rzeczywistym z AllMySat

Download on the App Store